SCP
0 0 0 0 0 0 0 0 0 0 0 0 0 0 0 0 0 0 0 0 0 0 0 0 0 0 0 0 0 0 0 0 0 0 0 0 0 0 0 0 0 0 0
0 0 0 0 0 0 0 0 0 0 0 0 0 0 0 0 0 0 0 0 0 0 0 0 0 0 0 0 0 0 0 0 0 0 0 0 0 0 0 0 0 0 0
0 0 0 0 0 0 0 0 0 0 0 0 0 0 0 0 0 0 0 0 0 0 0 0 0 0 0 0 0 0 0 0 0 0 0 0 0 0 0 0 0 0 0
0 0 0 0 0 0 0 0 0 0 0 0 0 0 0 0 0 0 0 0 0 0 0 0 0 0 0 0 0 0 0 0 0 0 0 0 0 0 0 0 0 0 0
0 0 0 0 0 0 0 0 0 0 0 0 0 0 0 0 0 0 0 0 0 0 0 0 0 0 0 0 0 0 0 0 0 0 0 0 0 0 0 0 0 0 0
0 0 0 0 0 0 0 0 0 0 0 0 0 0 0 0 0 0 0 0 0 0 0 0 0 0 0 0 0 0 0 0 0 0 0 0 0 0 0 0 0 0 0
0 0 0 0 0 0 0 0 0 0 0 0 0 0 0 0 0 0 0 0 0 0 0 0 0 0 0 0 0 0 0 0 0 0 0 0 0 0 0 0 0 0 0
0 0 0 0 0 0 0 0 0 0 0 0 0 0 0 0 0 0 0 0 0 0 0 0 0 0 0 0 0 0 0 0 0 0 0 0 0 0 0 0 0 0 0
0 0 0 0 0 0 0 0 0 0 0 0 0 0 0 0 0 0 0 0 0 0 0 0 0 0 0 0 0 0 0 0 0 0 0 0 0 0 0 0 0 0 0
0 0 0 0 0 0 0 0 0 0 0 0 0 0 0 0 0 0 0 0 0 0 0 0 0 0 0 0 0 0 0 0 0 0 0 0 0 0 0 0 0 0 0
0 0 0 0 0 0 0 0 0 0 0 0 0 0 0 0 0 0 0 0 0 0 0 0 0 0 0 0 0 0 0 0 0 0 0 0 0 0 0 0 0 0 0
0 0 0 0 0 0 0 0 0 0 0 0 0 0 0 0 0 0 0 0 0 0 0 0 0 0 0 0 0 0 0 0 0 0 0 0 0 0 0 0 0 0 0
0 0 0 0 0 0 0 0 0 0 0 0 0 0 0 0 0 0 0 0 0 0 0 0 0 0 0 0 0 0 0 0 0 0 0 0 0 0 0 0 0 0 0
0 0 0 0 0 0 0 0 0 0 0 0 0 0 0 0 0 0 0 0 0 0 0 0 0 0 0 0 0 0 0 0 0 0 0 0 0 0 0 0 0 0 0
0 0 0 0 0 0 0 0 0 0 0 0 0 0 0 0 0 0 0 0 0 0 0 0 0 0 0 0 0 0 0 0 0 0 0 0 0 0 0 0 0 0 0
0 0 0 0 0 0 0 0 0 0 0 0 0 0 0 0 0 0 0 0 0 0 0 0 0 0 0 0 0 0 0 0 0 0 0 0 0 0 0 0 0 0 0
0 0 0 0 0 0 0 0 0 0 0 0 0 0 0 0 0 0 0 0 0 0 0 0 0 0 0 0 0 0 0 0 0 0 0 0 0 0 0 0 0 0 0
0 0 0 0 0 0 0 0 0 0 0 0 0 0 0 0 0 0 0 0 0 0 0 0 0 0 0 0 0 0 0 0 0 0 0 0 0 0 0 0 0 0 0
0 0 0 0 0 0 0 0 0 0 0 0 0 0 0 0 0 0 0 0 0 0 0 0 0 0 0 0 0 0 0 0 0 0 0 0 0 0 0 0 0 0 0
0 0 0 0 0 0 0 0 0 0 0 0 0 0 0 0 0 0 0 0 0 0 0 0 0 0 0 0 0 0 0 0 0 0 0 0 0 0 0 0 0 0 0
0 0 0 0 0 0 0 0 0 0 0 0 0 0 0 0 0 0 0 0 0 0 0 0 0 0 0 0 0 0 0 0 0 0 0 0 0 0 0 0 0 0 0
0 0 0 0 0 0 0 0 0 0 0 0 0 0 0 0 0 0 0 0 0 0 0 0 0 0 0 0 0 0 0 0 0 0 0 0 0 0 0 0 0 0 0
0 0 0 0 0 0 0 0 0 0 0 0 0 0 0 0 0 0 0 0 0 0 0 0 0 0 0 0 0 0 0 0 0 0 0 0 0 0 0 0 0 0 0
0 0 0 0 0 0 0 0 0 0 0 0 0 0 0 0 0 0 0 0 0 0 0 0 0 0 0 0 0 0 0 0 0 0 0 0 0 0 0 0 0 0 0
0 0 0 0 0 0 0 0 0 0 0 0 0 0 0 0 0 0 0 0 0 0 0 0 0 0 0 0 0 0 0 0 0 0 0 0 0 0 0 0 0 0 0
0 0 0 0 0 0 0 0 0 0 0 0 0 0 0 0 0 0 0 0 0 0 0 0 0 0 0 0 0 0 0 0 0 0 0 0 0 0 0 0 0 0 0
Wind_Speed_500mb
46 53 55 60 65 70 75 73 69 65 62 63 67 72 77 78 74 71 72 80 84 84 80 79 80 74 71 66 60 54 53 44 36 35 35 36 34 35 28 24 20 21 25
31 40 47 53 61 69 70 67 63 60 60 63 67 69 73 74 83 77 81 80 84 85 84 84 80 74 68 65 61 57 53 45 34 27 32 34 36 34 29 25 24 25 31
22 29 38 47 55 59 61 63 63 64 65 65 68 68 71 77 76 79 79 83 90 87 84 83 78 74 71 68 62 56 51 38 30 28 21 34 36 32 29 26 27 30 33
29 32 42 48 52 56 58 61 60 62 64 66 68 67 69 71 73 73 75 80 82 83 79 77 73 71 68 63 58 48 34 28 32 24 27 28 33 31 28 27 30 34 36
46 42 46 52 57 60 60 62 61 62 62 59 63 67 69 69 72 72 75 79 83 83 74 67 65 65 59 55 47 32 25 26 27 29 31 33 35 29 27 34 34 36 37
60 54 50 56 61 65 62 63 62 62 63 60 64 65 67 70 71 70 74 78 82 77 68 63 67 62 64 51 38 25 18 22 28 31 34 38 29 28 39 35 35 38 44
69 63 61 62 65 66 64 65 65 64 62 61 65 67 69 67 68 71 75 79 75 70 69 68 59 71 68 51 38 33 27 23 30 36 39 34 28 42 38 36 36 40 46
68 72 72 71 72 70 68 67 68 67 66 63 64 67 69 67 69 70 75 72 66 69 71 63 66 72 77 60 53 39 22 35 40 43 39 33 43 41 38 38 41 46 48
66 69 72 73 74 74 74 72 69 69 68 67 63 66 69 67 67 69 69 67 70 66 68 66 75 69 72 55 53 34 22 38 44 44 38 44 45 44 41 43 45 45 52
58 59 62 65 70 72 73 71 68 68 67 63 61 63 66 66 67 66 66 76 80 72 72 77 67 69 69 62 44 27 32 41 44 43 45 50 48 46 44 50 47 47 50
54 54 56 56 58 60 61 64 64 65 65 64 60 60 63 64 65 64 75 83 83 78 83 85 80 68 71 61 49 34 39 32 39 46 50 53 50 49 48 50 49 49 52
47 49 50 49 49 50 51 54 56 58 60 59 59 59 60 61 61 64 68 75 72 82 89 80 71 73 70 69 47 34 24 36 47 53 55 54 50 50 50 48 48 51 51
39 42 41 41 43 45 49 51 53 55 59 58 59 60 59 56 55 54 64 68 80 83 78 71 71 64 67 66 64 43 31 41 44 52 54 50 50 51 52 54 53 51 52
41 37 36 35 37 40 42 44 47 51 55 55 57 56 55 53 52 52 63 67 71 70 64 63 65 63 68 68 60 55 42 48 47 46 50 50 53 56 57 55 55 50 55
44 37 36 34 34 34 37 36 38 39 43 41 42 44 46 45 43 45 63 73 72 70 69 65 65 69 76 77 69 63 49 55 56 53 51 53 56 58 58 56 53 53 56
39 37 35 33 31 29 30 30 31 29 30 31 34 34 30 26 27 28 47 66 71 64 68 65 67 71 73 75 78 74 66 64 59 58 54 55 59 59 59 58 57 56 55
45 43 33 31 31 27 25 24 24 24 28 28 27 27 26 26 21 22 29 51 64 65 68 68 71 73 73 76 81 82 79 70 65 60 59 59 58 58 57 57 55 55 56
42 37 35 27 22 23 21 18 18 22 24 27 29 27 24 25 22 19 21 32 55 63 68 68 68 67 67 71 75 75 70 67 66 56 59 61 57 53 53 54 54 54 52
37 35 32 27 23 25 26 25 24 24 22 20 23 28 28 31 29 28 31 45 56 67 70 69 71 67 65 65 66 67 64 66 64 58 58 55 53 52 52 52 50 49 51
25 32 32 24 23 24 26 27 28 27 25 23 23 23 23 30 34 35 39 44 47 51 58 67 72 71 73 68 63 59 65 66 60 60 58 54 54 51 50 48 48 50 48
38 30 28 23 24 25 27 32 33 31 27 24 23 23 26 32 36 37 39 41 43 45 45 48 48 47 50 55 58 54 55 57 58 57 53 53 51 50 47 48 48 47 43
38 37 34 32 31 32 33 34 31 29 26 26 24 23 26 32 42 43 41 42 42 47 48 51 50 52 51 52 53 56 56 56 56 52 50 50 48 48 50 49 47 44 39
33 32 33 32 34 32 30 30 30 30 27 27 25 25 28 31 33 40 46 46 44 44 41 39 42 46 50 51 53 52 52 51 45 44 46 46 49 50 48 46 42 40 36
26 26 27 27 30 29 29 28 28 27 26 27 25 24 28 29 29 34 39 44 44 44 45 45 46 48 48 46 46 46 48 47 45 44 45 49 50 48 46 44 40 37 34
21 22 26 26 26 25 25 25 25 25 24 24 25 26 27 27 29 31 34 37 38 39 40 41 42 42 42 42 43 44 45 44 45 46 48 48 47 45 42 40 38 38 36
20 22 23 23 22 20 22 21 22 22 22 22 22 23 24 25 26 26 27 29 30 32 34 35 37 38 39 41 43 45 46 45 45 45 45 46 46 43 42 40 38 38 37
Wind_Direction_500mb
238 242 245 242 239 239 241 243 245 245 242 236 231 230 230 233 234 225 234 230 230 224 227 234 233 231 230 231 227 219 212 211 205 201 214 219 214 230 234 244 263 286 305
254 254 255 249 245 243 245 246 244 245 242 237 233 235 231 231 228 237 233 229 226 224 227 229 230 228 225 226 218 210 207 203 213 225 214 211 219 229 239 253 272 291 303
270 269 264 258 253 249 246 244 244 245 244 240 236 236 236 235 234 234 234 233 228 226 228 229 226 223 220 209 205 201 194 205 217 219 231 216 229 229 242 259 279 292 303
266 275 271 266 260 252 246 244 244 246 246 244 241 240 238 238 238 238 235 231 229 227 227 228 225 223 215 207 200 194 201 211 215 226 244 231 229 235 249 271 286 294 301
264 267 274 269 262 256 249 245 245 244 246 245 243 241 238 235 234 238 236 236 230 225 225 224 222 216 211 206 198 197 204 217 225 237 243 240 234 244 268 280 287 296 301
265 266 271 268 265 262 255 248 245 244 245 242 242 241 243 244 243 240 236 234 231 227 222 214 212 209 202 193 197 206 227 230 238 250 245 238 241 264 274 278 288 296 303
271 270 268 267 264 261 257 251 248 245 246 244 243 243 244 246 246 243 238 233 227 221 219 208 211 207 196 201 205 235 248 238 251 244 242 241 260 274 271 280 289 295 300
279 275 269 267 265 264 259 251 246 244 245 245 242 243 242 243 245 244 242 233 222 219 211 222 213 220 202 212 230 243 249 282 246 237 238 248 268 266 272 280 287 293 297
280 277 272 269 266 264 259 253 248 245 244 245 244 244 244 243 243 241 237 224 215 213 219 217 217 209 218 222 231 243 267 261 232 236 240 257 264 270 274 279 286 287 299
287 282 275 270 267 264 261 257 253 249 247 245 248 248 247 243 241 237 230 220 224 214 213 210 204 214 220 220 230 250 279 257 236 241 248 255 267 271 275 283 289 292 295
289 283 277 272 267 263 258 254 252 250 246 244 244 249 251 246 240 237 234 230 220 210 210 212 219 212 209 221 242 266 272 249 238 244 249 259 264 270 275 280 284 287 289
294 286 281 275 267 261 257 253 249 245 245 244 244 246 248 244 239 236 234 227 215 212 218 218 208 211 219 227 250 246 266 258 237 244 250 256 264 273 278 279 278 283 287
297 289 281 272 263 257 253 250 244 241 239 239 239 242 244 244 238 231 224 220 213 222 219 225 216 214 220 235 247 245 262 270 257 250 255 258 270 277 277 278 283 288 288
302 292 279 268 260 252 248 244 242 240 239 236 236 239 240 239 237 226 216 225 225 223 221 227 212 216 227 239 244 250 252 274 271 266 261 267 272 278 279 285 286 287 289
295 290 279 268 260 252 250 249 247 245 246 247 246 243 243 243 243 232 219 216 220 222 221 225 213 217 226 230 242 245 253 268 269 266 265 270 274 276 280 283 282 284 283
285 282 278 268 259 249 247 244 239 237 241 238 233 237 241 235 230 225 222 221 224 223 218 222 225 224 229 231 242 246 250 263 273 267 263 268 270 272 275 277 278 281 285
272 267 261 263 258 252 246 244 247 248 238 237 239 229 224 223 209 202 198 211 214 222 224 225 228 229 234 238 242 247 251 262 274 265 263 264 267 266 268 271 275 276 282
270 257 248 235 237 253 252 245 243 242 250 242 232 229 226 216 207 205 196 199 207 216 224 227 231 235 240 245 247 251 258 260 274 264 264 267 269 265 265 266 268 271 275
261 249 235 231 228 235 239 233 226 223 221 219 219 223 225 218 215 215 210 212 210 211 218 226 234 241 249 249 251 259 260 267 273 268 269 267 264 263 263 263 264 269 276
277 254 242 233 229 230 234 233 233 225 219 214 215 217 223 216 218 214 217 223 224 224 230 233 237 237 240 244 250 256 265 267 264 266 266 262 260 259 258 259 263 267 272
247 237 244 245 231 235 237 231 233 231 227 224 218 217 214 219 223 225 225 231 240 241 240 243 244 250 255 258 260 259 257 260 261 263 258 257 257 257 258 260 262 265 267
238 238 235 231 236 236 228 225 226 227 226 228 225 218 220 223 219 224 233 235 235 240 238 241 247 250 251 252 253 257 260 261 260 256 255 254 253 254 257 259 260 260 261
232 232 233 223 222 223 223 224 222 224 223 225 224 222 228 231 225 229 232 239 245 251 256 251 248 251 253 256 257 258 260 260 259 256 253 253 255 257 257 258 257 257 261
229 226 226 223 221 218 220 225 231 235 237 238 242 241 242 246 247 243 244 247 251 254 256 257 254 252 252 254 255 254 254 253 252 253 255 257 257 255 254 252 253 256 258
213 220 224 221 220 221 224 227 231 235 240 245 245 244 246 248 247 246 245 245 246 248 250 252 253 252 251 250 250 252 252 254 255 256 257 257 256 255 253 251 250 254 256
211 207 208 209 210 216 222 223 228 234 239 242 246 249 251 249 248 249 248 247 249 250 251 252 252 250 250 250 253 255 258 258 258 256 255 255 254 252 252 253 252 253 254
Wind_Speed_850mb
46 53 55 60 65 70 75 73 69 65 62 63 67 72 77 78 74 71 72 80 84 84 80 79 80 74 71 66 60 54 53 44 36 35 35 36 34 35 28 24 20 21 25
31 40 47 53 61 69 70 67 63 60 60 63 67 69 73 74 83 77 81 80 84 85 84 84 80 74 68 65 61 57 53 45 34 27 32 34 36 34 29 25 24 25 31
22 29 38 47 55 59 61 63 63 64 65 65 68 68 71 77 76 79 79 83 90 87 84 83 78 74 71 68 62 56 51 38 30 28 21 34 36 32 29 26 27 30 33
29 32 42 48 52 56 58 61 60 62 64 66 68 67 69 71 73 73 75 80 82 83 79 77 73 71 68 63 58 48 34 28 32 24 27 28 33 31 28 27 30 34 36
46 42 46 52 57 60 60 62 61 62 62 59 63 67 69 69 72 72 75 79 83 83 74 67 65 65 59 55 47 32 25 26 27 29 31 33 35 29 27 34 34 36 37
60 54 50 56 61 65 62 63 62 62 63 60 64 65 67 70 71 70 74 78 82 77 68 63 67 62 64 51 38 25 18 22 28 31 34 38 29 28 39 35 35 38 44
69 63 61 62 65 66 64 65 65 64 62 61 65 67 69 67 68 71 75 79 75 70 69 68 59 71 68 51 38 33 27 23 30 36 39 34 28 42 38 36 36 40 46
68 72 72 71 72 70 68 67 68 67 66 63 64 67 69 67 69 70 75 72 66 69 71 63 66 72 77 60 53 39 22 35 40 43 39 33 43 41 38 38 41 46 48
66 69 72 73 74 74 74 72 69 69 68 67 63 66 69 67 67 69 69 67 70 66 68 66 75 69 72 55 53 34 22 38 44 44 38 44 45 44 41 43 45 45 52
58 59 62 65 70 72 73 71 68 68 67 63 61 63 66 66 67 66 66 76 80 72 72 77 67 69 69 62 44 27 32 41 44 43 45 50 48 46 44 50 47 47 50
54 54 56 56 58 60 61 64 64 65 65 64 60 60 63 64 65 64 75 83 83 78 83 85 80 68 71 61 49 34 39 32 39 46 50 53 50 49 48 50 49 49 52
47 49 50 49 49 50 51 54 56 58 60 59 59 59 60 61 61 64 68 75 72 82 89 80 71 73 70 69 47 34 24 36 47 53 55 54 50 50 50 48 48 51 51
39 42 41 41 43 45 49 51 53 55 59 58 59 60 59 56 55 54 64 68 80 83 78 71 71 64 67 66 64 43 31 41 44 52 54 50 50 51 52 54 53 51 52
41 37 36 35 37 40 42 44 47 51 55 55 57 56 55 53 52 52 63 67 71 70 64 63 65 63 68 68 60 55 42 48 47 46 50 50 53 56 57 55 55 50 55
44 37 36 34 34 34 37 36 38 39 43 41 42 44 46 45 43 45 63 73 72 70 69 65 65 69 76 77 69 63 49 55 56 53 51 53 56 58 58 56 53 53 56
39 37 35 33 31 29 30 30 31 29 30 31 34 34 30 26 27 28 47 66 71 64 68 65 67 71 73 75 78 74 66 64 59 58 54 55 59 59 59 58 57 56 55
45 43 33 31 31 27 25 24 24 24 28 28 27 27 26 26 21 22 29 51 64 65 68 68 71 73 73 76 81 82 79 70 65 60 59 59 58 58 57 57 55 55 56
42 37 35 27 22 23 21 18 18 22 24 27 29 27 24 25 22 19 21 32 55 63 68 68 68 67 67 71 75 75 70 67 66 56 59 61 57 53 53 54 54 54 52
37 35 32 27 23 25 26 25 24 24 22 20 23 28 28 31 29 28 31 45 56 67 70 69 71 67 65 65 66 67 64 66 64 58 58 55 53 52 52 52 50 49 51
25 32 32 24 23 24 26 27 28 27 25 23 23 23 23 30 34 35 39 44 47 51 58 67 72 71 73 68 63 59 65 66 60 60 58 54 54 51 50 48 48 50 48
38 30 28 23 24 25 27 32 33 31 27 24 23 23 26 32 36 37 39 41 43 45 45 48 48 47 50 55 58 54 55 57 58 57 53 53 51 50 47 48 48 47 43
38 37 34 32 31 32 33 34 31 29 26 26 24 23 26 32 42 43 41 42 42 47 48 51 50 52 51 52 53 56 56 56 56 52 50 50 48 48 50 49 47 44 39
33 32 33 32 34 32 30 30 30 30 27 27 25 25 28 31 33 40 46 46 44 44 41 39 42 46 50 51 53 52 52 51 45 44 46 46 49 50 48 46 42 40 36
26 26 27 27 30 29 29 28 28 27 26 27 25 24 28 29 29 34 39 44 44 44 45 45 46 48 48 46 46 46 48 47 45 44 45 49 50 48 46 44 40 37 34
21 22 26 26 26 25 25 25 25 25 24 24 25 26 27 27 29 31 34 37 38 39 40 41 42 42 42 42 43 44 45 44 45 46 48 48 47 45 42 40 38 38 36
20 22 23 23 22 20 22 21 22 22 22 22 22 23 24 25 26 26 27 29 30 32 34 35 37 38 39 41 43 45 46 45 45 45 45 46 46 43 42 40 38 38 37
Wind_Direction_850mb
238 242 245 242 239 239 241 243 245 245 242 236 231 230 230 233 234 225 234 230 230 224 227 234 233 231 230 231 227 219 212 211 205 201 214 219 214 230 234 244 263 286 305
254 254 255 249 245 243 245 246 244 245 242 237 233 235 231 231 228 237 233 229 226 224 227 229 230 228 225 226 218 210 207 203 213 225 214 211 219 229 239 253 272 291 303
270 269 264 258 253 249 246 244 244 245 244 240 236 236 236 235 234 234 234 233 228 226 228 229 226 223 220 209 205 201 194 205 217 219 231 216 229 229 242 259 279 292 303
266 275 271 266 260 252 246 244 244 246 246 244 241 240 238 238 238 238 235 231 229 227 227 228 225 223 215 207 200 194 201 211 215 226 244 231 229 235 249 271 286 294 301
264 267 274 269 262 256 249 245 245 244 246 245 243 241 238 235 234 238 236 236 230 225 225 224 222 216 211 206 198 197 204 217 225 237 243 240 234 244 268 280 287 296 301
265 266 271 268 265 262 255 248 245 244 245 242 242 241 243 244 243 240 236 234 231 227 222 214 212 209 202 193 197 206 227 230 238 250 245 238 241 264 274 278 288 296 303
271 270 268 267 264 261 257 251 248 245 246 244 243 243 244 246 246 243 238 233 227 221 219 208 211 207 196 201 205 235 248 238 251 244 242 241 260 274 271 280 289 295 300
279 275 269 267 265 264 259 251 246 244 245 245 242 243 242 243 245 244 242 233 222 219 211 222 213 220 202 212 230 243 249 282 246 237 238 248 268 266 272 280 287 293 297
280 277 272 269 266 264 259 253 248 245 244 245 244 244 244 243 243 241 237 224 215 213 219 217 217 209 218 222 231 243 267 261 232 236 240 257 264 270 274 279 286 287 299
287 282 275 270 267 264 261 257 253 249 247 245 248 248 247 243 241 237 230 220 224 214 213 210 204 214 220 220 230 250 279 257 236 241 248 255 267 271 275 283 289 292 295
289 283 277 272 267 263 258 254 252 250 246 244 244 249 251 246 240 237 234 230 220 210 210 212 219 212 209 221 242 266 272 249 238 244 249 259 264 270 275 280 284 287 289
294 286 281 275 267 261 257 253 249 245 245 244 244 246 248 244 239 236 234 227 215 212 218 218 208 211 219 227 250 246 266 258 237 244 250 256 264 273 278 279 278 283 287
297 289 281 272 263 257 253 250 244 241 239 239 239 242 244 244 238 231 224 220 213 222 219 225 216 214 220 235 247 245 262 270 257 250 255 258 270 277 277 278 283 288 288
302 292 279 268 260 252 248 244 242 240 239 236 236 239 240 239 237 226 216 225 225 223 221 227 212 216 227 239 244 250 252 274 271 266 261 267 272 278 279 285 286 287 289
295 290 279 268 260 252 250 249 247 245 246 247 246 243 243 243 243 232 219 216 220 222 221 225 213 217 226 230 242 245 253 268 269 266 265 270 274 276 280 283 282 284 283
285 282 278 268 259 249 247 244 239 237 241 238 233 237 241 235 230 225 222 221 224 223 218 222 225 224 229 231 242 246 250 263 273 267 263 268 270 272 275 277 278 281 285
272 267 261 263 258 252 246 244 247 248 238 237 239 229 224 223 209 202 198 211 214 222 224 225 228 229 234 238 242 247 251 262 274 265 263 264 267 266 268 271 275 276 282
270 257 248 235 237 253 252 245 243 242 250 242 232 229 226 216 207 205 196 199 207 216 224 227 231 235 240 245 247 251 258 260 274 264 264 267 269 265 265 266 268 271 275
261 249 235 231 228 235 239 233 226 223 221 219 219 223 225 218 215 215 210 212 210 211 218 226 234 241 249 249 251 259 260 267 273 268 269 267 264 263 263 263 264 269 276
277 254 242 233 229 230 234 233 233 225 219 214 215 217 223 216 218 214 217 223 224 224 230 233 237 237 240 244 250 256 265 267 264 266 266 262 260 259 258 259 263 267 272
247 237 244 245 231 235 237 231 233 231 227 224 218 217 214 219 223 225 225 231 240 241 240 243 244 250 255 258 260 259 257 260 261 263 258 257 257 257 258 260 262 265 267
238 238 235 231 236 236 228 225 226 227 226 228 225 218 220 223 219 224 233 235 235 240 238 241 247 250 251 252 253 257 260 261 260 256 255 254 253 254 257 259 260 260 261
232 232 233 223 222 223 223 224 222 224 223 225 224 222 228 231 225 229 232 239 245 251 256 251 248 251 253 256 257 258 260 260 259 256 253 253 255 257 257 258 257 257 261
229 226 226 223 221 218 220 225 231 235 237 238 242 241 242 246 247 243 244 247 251 254 256 257 254 252 252 254 255 254 254 253 252 253 255 257 257 255 254 252 253 256 258
213 220 224 221 220 221 224 227 231 235 240 245 245 244 246 248 247 246 245 245 246 248 250 252 253 252 251 250 250 252 252 254 255 256 257 257 256 255 253 251 250 254 256
211 207 208 209 210 216 222 223 228 234 239 242 246 249 251 249 248 249 248 247 249 250 251 252 252 250 250 250 253 255 258 258 258 256 255 255 254 252 252 253 252 253 254